EW6555 Weather Reports


time (UTC)temp
F
wind
direction
speed
knots
gust
knots
rain 1hr
in
rain 24hr
in
rain mn
in
humidity
%
barometer
mb
20260902014705 69 219 1.7 10.4 0.00 0.00 0.00 54 1014.2
20260902014203 69 260 1.7 7.8 0.00 0.00 0.00 53 1014.2
20260902013712 69 264 1.7 9.6 0.00 0.00 0.00 54 1014.1
20260902013211 70 41 1.7 9.6 0.00 0.00 0.00 53 1014.2
20260902012707 70 293 0.9 6.1 0.00 0.00 0.00 53 1014.1
20260902012203 71 278 0.9 5.2 0.00 0.00 0.00 52 1014.1
20260902011705 70 272 0.9 5.2 0.00 0.00 0.00 52 1014.0
20260902011204 71 287 1.7 5.2 0.00 0.00 0.00 52 1014.0
20260902010705 71 234 1.7 6.1 0.00 0.00 0.00 51 1014.0
20260902010422 71 224 0.9 7.0 0.00 0.00 0.00 52 1014.0
20260902005930 71 279 0.9 7.8 0.00 0.00 0.00 51 1014.0
20260902005203 71 225 0.9 7.8 0.00 0.00 0.00 49 1014.0
20260902004704 71 302 0.9 6.1 0.00 0.00 0.00 49 1013.9
20260902004203 71 268 2.6 7.0 0.00 0.00 0.00 51 1013.9
20260902003706 71 261 1.7 7.0 0.00 0.00 0.00 51 1013.9
20260902003429 71 256 0.9 5.2 0.00 0.00 0.00 50 1013.9
20260902002704 71 288 0.9 4.3 0.00 0.00 0.00 50 1013.8
20260902002203 71 259 2.6 7.8 0.00 0.00 0.00 50 1013.8
20260902002151 72 255 1.7 7.8 0.00 0.00 0.00 49 1013.9
20260902001203 74 288 0.9 7.8 0.00 0.00 0.00 46 1013.9
20260902000705 73 239 0.9 7.8 0.00 0.00 0.00 46 1013.8
20260902000204 73 220 0.9 7.8 0.00 0.00 0.00 46 1013.9
20260901235706 74 266 0.9 9.6 0.00 0.00 0.00 45 1013.9
20260901235204 74 251 0.9 9.6 0.00 0.00 0.00 44 1013.9
20260901234705 73 291 0.9 7.0 0.00 0.00 0.00 45 1014.0
20260901234204 73 165 0.9 6.1 0.00 0.00 0.00 45 1014.0
20260901233704 73 293 0.9 7.0 0.00 0.00 0.00 45 1013.9
20260901233203 73 260 1.7 8.7 0.00 0.00 0.00 46 1014.0
20260901232705 73 297 1.7 8.7 0.00 0.00 0.00 46 1013.9
20260901232202 73 302 1.7 7.0 0.00 0.00 0.00 44 1014.0
20260901231705 74 314 1.7 7.0 0.00 0.00 0.00 45 1014.0
20260901231427 74 293 2.6 6.1 0.00 0.00 0.00 44 1014.1
20260901230706 74 265 1.7 7.8 0.00 0.00 0.00 44 1014.0
20260901230203 74 245 0.9 7.8 0.00 0.00 0.00 42 1014.2
20260901225705 74 240 1.7 7.0 0.00 0.00 0.00 44 1014.2
20260901225210 73 250 1.7 7.8 0.00 0.00 0.00 45 1014.1
20260901224938 74 284 1.7 7.8 0.00 0.00 0.00 44 1014.1
20260901224203 73 239 2.6 8.7 0.00 0.00 0.00 45 1014.1
20260901223925 73 300 3.5 8.7 0.00 0.00 0.00 46 1014.2
20260901223204 74 231 2.6 7.8 0.00 0.00 0.00 45 1014.2
20260901222704 74 282 1.7 7.8 0.00 0.00 0.00 45 1014.3
20260901222204 74 278 0.9 5.2 0.00 0.00 0.00 45 1014.3
20260901221705 74 214 1.7 7.8 0.00 0.00 0.00 45 1014.2
20260901221203 74 267 1.7 9.6 0.00 0.00 0.00 47 1014.2
20260901220705 74 281 1.7 9.6 0.00 0.00 0.00 46 1014.2
20260901220203 74 254 1.7 7.8 0.00 0.00 0.00 47 1014.4
20260901215705 74 297 1.7 7.8 0.00 0.00 0.00 46 1014.5
20260901215649 75 276 1.7 9.6 0.00 0.00 0.00 46 1014.4
20260901214705 75 131 0.9 9.6 0.00 0.00 0.00 46 1014.4
20260901214203 75 127 0.9 5.2 0.00 0.00 0.00 46 1014.5
20260901213704 75 187 0.9 5.2 0.00 0.00 0.00 47 1014.5
20260901213202 75 186 0.9 6.1 0.00 0.00 0.00 44 1014.5
20260901212704 76 285 0.9 6.1 0.00 0.00 0.00 42 1014.5
20260901212203 76 236 0.9 7.8 0.00 0.00 0.00 44 1014.4
20260901211706 75 251 0.9 7.8 0.00 0.00 0.00 44 1014.4
20260901211204 74 300 0.9 4.3 0.00 0.00 0.00 44 1014.4
20260901210705 74 295 0.9 6.1 0.00 0.00 0.00 44 1014.4
20260901210203 74 257 0.9 6.1 0.00 0.00 0.00 45 1014.5
20260901205705 74 273 0.9 5.2 0.00 0.00 0.00 44 1014.5
20260901205430 74 250 0.9 6.1 0.00 0.00 0.00 44 1014.5
20260901204928 74 250 0.9 6.1 0.00 0.00 0.00 44 1014.4
20260901204203 73 194 0.9 5.2 0.00 0.00 0.00 47 1014.5
20260901203705 72 296 0.9 5.2 0.00 0.00 0.00 47 1014.5
20260901203204 72 278 0.9 5.2 0.00 0.00 0.00 45 1014.5
20260901202932 72 278 0.9 4.3 0.00 0.00 0.00 46 1014.7
20260901202203 72 283 0.9 4.3 0.00 0.00 0.00 46 1014.7
20260901201705 72 293 0.9 4.3 0.00 0.00 0.00 46 1014.7
20260901201427 72 271 1.7 7.8 0.00 0.00 0.00 46 1014.8
20260901200705 72 96 0.9 7.8 0.00 0.00 0.00 46 1014.9
20260901200203 72 250 0.9 4.3 0.00 0.00 0.00 47 1014.9
20260901195931 72 237 0.9 6.1 0.00 0.00 0.00 46 1015.0
20260901195203 72 277 0.9 6.1 0.00 0.00 0.00 47 1014.9
20260901194705 72 308 0.9 5.2 0.00 0.00 0.00 48 1014.9
20260901194204 72 262 0.9 5.2 0.00 0.00 0.00 48 1014.9
20260901193930 72 277 0.9 7.0 0.00 0.00 0.00 49 1015.0
20260901193203 71 253 0.9 7.0 0.00 0.00 0.00 49 1015.0
20260901192705 71 281 0.9 6.1 0.00 0.00 0.00 50 1015.1
20260901192203 71 248 1.7 6.1 0.00 0.00 0.00 51 1015.2
20260901191704 71 290 0.9 5.2 0.00 0.00 0.00 50 1015.2
20260901191420 71 229 0.9 6.1 0.00 0.00 0.00 51 1015.2
20260901190706 70 97 1.7 6.1 0.00 0.00 0.00 53 1015.2
20260901190203 70 124 0.9 5.2 0.00 0.00 0.00 53 1015.3
20260901185705 70 336 0.9 5.2 0.00 0.00 0.00 52 1015.3
20260901185427 70 254 0.9 5.2 0.00 0.00 0.00 53 1015.2
20260901184704 69 295 0.9 5.2 0.00 0.00 0.00 54 1015.2
20260901184203 69 280 0.9 5.2 0.00 0.00 0.00 56 1015.3
20260901183929 68 283 0.9 7.8 0.00 0.00 0.00 57 1015.3
20260901183204 68 254 1.7 7.8 0.00 0.00 0.00 55 1015.3
20260901182704 69 281 0.9 6.1 0.00 0.00 0.00 56 1015.2
20260901182204 69 276 0.0 3.5 0.00 0.00 0.00 57 1015.2
20260901181923 68 270 0.0 3.5 0.00 0.00 0.00 57 1015.2
20260901181203 69 271 0.0 4.3 0.00 0.00 0.00 56 1015.2
20260901180705 69 281 0.0 4.3 0.00 0.00 0.00 56 1015.2
20260901180202 70 285 0.9 4.3 0.00 0.00 0.00 55 1015.2
20260901175938 70 42 0.0 4.3 0.00 0.00 0.00 56 1015.1
20260901175204 69 280 0.0 7.0 0.00 0.00 0.00 57 1015.0
20260901174705 69 261 0.9 7.0 0.00 0.00 0.00 59 1014.9
20260901174431 68 184 0.9 5.2 0.00 0.00 0.00 59 1014.9
20260901173705 68 252 0.0 5.2 0.00 0.00 0.00 58 1014.9
20260901173203 68 245 0.9 7.8 0.00 0.00 0.00 60 1014.9
20260901172705 68 94 0.9 7.8 0.00 0.00 0.00 60 1014.9
20260901172203 68 263 0.9 7.0 0.00 0.00 0.00 60 1014.8
20260901171705 67 200 0.0 4.3 0.00 0.00 0.00 61 1014.8
20260901171203 67 284 0.0 2.6 0.00 0.00 0.00 61 1014.8
20260901170703 67 288 0.0 2.6 0.00 0.00 0.00 62 1014.7
20260901170204 66 283 0.0 2.6 0.00 0.00 0.00 64 1014.7
20260901165703 65 262 0.0 3.5 0.00 0.00 0.00 66 1014.6
20260901165203 65 306 0.0 3.5 0.00 0.00 0.00 66 1014.6
20260901164703 65 229 0.9 7.8 0.00 0.00 0.00 65 1014.6
20260901164203 64 255 0.9 7.8 0.00 0.00 0.00 68 1014.6
20260901163712 64 276 0.0 2.6 0.00 0.00 0.00 69 1014.6
20260901163147 64 180 0.9 4.3 0.00 0.00 0.00 69 1014.7
20260901162635 64 265 0.9 4.3 0.00 0.00 0.00 70 1014.8
20260901162131 64 262 0.0 3.5 0.00 0.00 0.00 73 1014.7
20260901161640 64 231 0.0 0.9 0.00 0.00 0.00 73 1014.6
20260901161134 64 251 0.0 5.2 0.00 0.00 0.00 74 1014.6
20260901160632 64 271 0.9 5.2 0.00 0.00 0.00 70 1014.5
20260901160131 64 285 0.0 5.2 0.00 0.00 0.00 72 1014.5
20260901155633 63 271 0.0 1.7 0.00 0.00 0.00 73 1014.4
20260901155131 63 276 0.9 6.1 0.00 0.00 0.00 73 1014.2
20260901154633 63 311 0.0 6.1 0.00 0.00 0.00 73 1014.2
20260901154129 63 240 0.0 1.7 0.00 0.00 0.00 73 1014.3
20260901153630 63 304 0.0 1.7 0.00 0.00 0.00 74 1014.1
20260901153129 63 276 0.0 2.6 0.00 0.00 0.00 75 1014.2
20260901152850 62 269 0.0 2.6 0.00 0.00 0.00 75 1014.2
20260901152128 62 288 0.0 2.6 0.00 0.00 0.00 76 1014.1
20260901151850 62 276 0.0 5.2 0.00 0.00 0.00 76 1014.1
20260901151129 62 292 0.0 5.2 0.00 0.00 0.00 76 1013.9
20260901150630 62 115 0.0 5.2 0.00 0.00 0.00 76 1013.9
20260901150348 62 245 0.0 3.5 0.00 0.00 0.00 77 1013.9
20260901145630 62 233 0.0 4.3 0.00 0.00 0.00 77 1013.9
20260901145129 62 210 0.0 4.3 0.00 0.00 0.00 77 1013.8
20260901144630 61 255 0.0 3.5 0.00 0.00 0.00 76 1013.8
20260901144129 61 270 0.9 6.1 0.00 0.00 0.00 76 1013.7
20260901143631 61 231 0.9 6.1 0.00 0.00 0.00 76 1013.6
20260901143130 61 285 0.0 0.0 0.00 0.00 0.00 77 1013.6
20260901142630 61 221 0.0 0.0 0.00 0.00 0.00 77 1013.6
20260901142129 60 231 0.0 0.0 0.00 0.00 0.00 77 1013.5
20260901141630 60 203 0.0 0.0 0.00 0.00 0.00 77 1013.4
20260901141129 60 284 0.0 0.0 0.00 0.00 0.00 77 1013.2
20260901140630 60 266 0.0 0.0 0.00 0.00 0.00 78 1013.2
20260901140129 60 250 0.0 0.0 0.00 0.00 0.00 78 1013.2
20260901135631 60 281 0.0 0.0 0.00 0.00 0.00 79 1013.2
20260901135129 60 304 0.0 0.0 0.00 0.00 0.00 80 1013.1
20260901134631 60 238 0.0 0.0 0.00 0.00 0.00 80 1013.1
20260901134353 60 283 0.0 0.0 0.00 0.00 0.00 80 1013.0
20260901133637 60 272 0.0 0.0 0.00 0.00 0.00 80 1012.9
20260901133129 60 277 0.0 0.0 0.00 0.00 0.00 80 1012.9
20260901132630 60 277 0.0 0.0 0.00 0.00 0.00 81 1012.8
20260901132129 60 277 0.0 0.0 0.00 0.00 0.00 81 1012.8
20260901131631 60 277 0.0 0.0 0.00 0.00 0.00 81 1012.7
20260901131129 60 295 0.0 0.0 0.00 0.00 0.00 81 1012.7
20260901130630 60 225 0.0 0.0 0.00 0.00 0.00 81 1012.8
20260901130128 60 271 0.0 0.0 0.00 0.00 0.00 81 1012.9
20260901125631 60 285 0.0 0.0 0.00 0.00 0.00 81 1012.8
20260901125128 60 279 0.0 0.0 0.00 0.00 0.00 81 1012.8
20260901124630 60 274 0.0 0.0 0.00 0.00 0.00 81 1012.7
20260901124129 60 286 0.0 0.0 0.00 0.00 0.00 81 1012.6
20260901123859 60 272 0.0 0.0 0.00 0.00 0.00 81 1012.6
20260901123129 60 7 0.0 0.0 0.00 0.00 0.00 81 1012.6
20260901122631 59 285 0.0 0.0 0.00 0.00 0.00 81 1012.6
20260901122128 59 285 0.0 0.0 0.00 0.00 0.00 81 1012.4
20260901121854 59 285 0.0 0.0 0.00 0.00 0.00 80 1012.5
20260901121128 59 291 0.0 0.9 0.00 0.00 0.00 80 1012.4
20260901120630 60 291 0.0 4.3 0.00 0.00 0.00 80 1012.3
20260901120130 60 305 0.0 4.3 0.00 0.00 0.00 79 1012.3
20260901115631 60 281 0.0 4.3 0.00 0.00 0.00 79 1012.4
20260901115130 60 296 0.0 4.3 0.00 0.00 0.00 79 1012.5
20260901114630 60 160 0.0 1.7 0.00 0.00 0.00 79 1012.5
20260901114128 60 276 0.0 5.2 0.00 0.00 0.00 78 1012.5
20260901113630 60 281 0.0 5.2 0.00 0.00 0.00 78 1012.5
20260901113128 60 274 0.0 1.7 0.00 0.00 0.00 77 1012.6
20260901112630 60 125 0.0 5.2 0.00 0.00 0.00 77 1012.5
20260901112129 60 256 0.0 5.2 0.00 0.00 0.00 77 1012.6
20260901111630 60 265 0.0 4.3 0.00 0.00 0.00 76 1012.6
20260901111129 60 268 0.0 3.5 0.00 0.00 0.00 76 1012.7
20260901110630 60 248 0.0 3.5 0.00 0.00 0.00 76 1012.6
20260901110400 60 261 0.0 2.6 0.00 0.00 0.00 76 1012.6
20260901105850 60 326 0.0 2.6 0.00 0.00 0.00 76 1012.6
20260901105347 60 214 0.0 1.7 0.00 0.00 0.00 76 1012.5
20260901104629 60 271 0.0 1.7 0.00 0.00 0.00 76 1012.5
20260901104129 60 297 0.0 0.9 0.00 0.00 0.00 76 1012.4
20260901103631 60 207 0.0 6.1 0.00 0.00 0.00 77 1012.3
20260901103129 60 285 0.0 7.0 0.00 0.00 0.00 77 1012.3
20260901102630 60 259 0.0 7.0 0.00 0.00 0.00 77 1012.3
20260901102129 59 161 0.0 0.9 0.00 0.00 0.00 77 1012.3
20260901101633 59 259 0.0 3.5 0.00 0.00 0.00 77 1012.2
20260901101128 60 275 0.0 3.5 0.00 0.00 0.00 77 1012.2
20260901100629 60 254 0.0 0.9 0.00 0.00 0.00 77 1012.1
20260901100129 60 271 0.0 0.9 0.00 0.00 0.00 77 1012.1
20260901095629 60 193 0.0 3.5 0.00 0.00 0.00 76 1012.1
20260901095129 60 248 0.0 3.5 0.00 0.00 0.00 76 1012.1
20260901094619 60 255 0.0 2.6 0.00 0.00 0.00 76 1012.2
20260901094119 60 285 0.0 4.3 0.00 0.00 0.00 75 1012.3
20260901093606 60 278 0.0 4.3 0.00 0.00 0.00 75 1012.4
20260901093105 60 262 0.0 2.6 0.00 0.00 0.00 74 1012.4
20260901092603 60 263 0.0 3.5 0.00 0.00 0.00 74 1012.4
20260901092323 60 251 0.0 3.5 0.00 0.00 0.00 74 1012.4
20260901091602 60 234 0.0 3.5 0.00 0.00 0.00 74 1012.4
20260901091325 60 290 0.0 3.5 0.00 0.00 0.00 73 1012.4
20260901090603 60 287 0.0 0.9 0.00 0.00 0.00 73 1012.4
20260901090100 60 238 0.0 0.9 0.00 0.00 0.00 73 1012.4
20260901085604 60 224 0.0 0.0 0.00 0.00 0.00 73 1012.3
20260901085100 60 267 0.0 2.6 0.00 0.00 0.00 73 1012.3
20260901084603 60 287 0.0 2.6 0.00 0.00 0.00 73 1012.5
20260901084550 60 276 0.0 2.6 0.00 0.00 0.00 73 1012.4
20260901083603 60 260 0.0 5.2 0.00 0.00 0.00 73 1012.5
20260901083108 60 274 0.0 5.2 0.00 0.00 0.00 73 1012.5
20260901082603 60 284 0.0 3.5 0.00 0.00 0.00 73 1012.5
20260901082101 60 281 0.0 2.6 0.00 0.00 0.00 73 1012.5
20260901081602 60 281 0.0 2.6 0.00 0.00 0.00 73 1012.4
20260901081100 60 306 0.0 0.9 0.00 0.00 0.00 73 1012.4
20260901080603 60 285 0.0 0.0 0.00 0.00 0.00 74 1012.4
20260901080101 60 281 0.0 0.0 0.00 0.00 0.00 74 1012.4
20260901075602 60 256 0.0 3.5 0.00 0.00 0.00 74 1012.4
20260901075101 60 256 0.0 3.5 0.00 0.00 0.00 73 1012.3
20260901074602 60 217 0.0 0.9 0.00 0.00 0.00 73 1012.3
20260901074101 60 295 0.0 1.7 0.00 0.00 0.00 73 1012.3
20260901073827 60 249 0.0 1.7 0.00 0.00 0.00 73 1012.3
20260901073101 60 240 0.0 1.7 0.00 0.00 0.00 73 1012.3
20260901072603 60 286 0.0 4.3 0.00 0.00 0.00 73 1012.3
20260901072101 60 252 0.0 4.3 0.00 0.00 0.00 73 1012.3
20260901071603 60 249 0.0 4.3 0.00 0.00 0.00 73 1012.3
20260901071101 60 227 0.0 4.3 0.00 0.00 0.00 73 1012.3
20260901070602 60 259 0.0 1.7 0.00 0.00 0.00 74 1012.3
20260901070316 60 231 0.0 1.7 0.00 0.00 0.00 74 1012.3
20260901065602 60 258 0.0 5.2 0.00 0.00 0.00 74 1012.2
20260901065101 60 292 0.0 5.2 0.00 0.00 0.00 75 1012.3
20260901064603 60 287 0.9 5.2 0.00 0.00 0.00 75 1012.4
20260901064326 60 266 0.9 5.2 0.00 0.00 0.00 75 1012.4
20260901063603 60 196 0.9 3.5 0.00 0.00 0.00 75 1012.4
20260901063101 60 273 0.0 2.6 0.00 0.00 0.00 75 1012.4
20260901062602 60 256 0.0 3.5 0.00 0.00 0.00 75 1012.4
20260901062100 60 288 0.0 3.5 0.00 0.00 0.00 75 1012.4
20260901061602 60 298 0.0 3.5 0.00 0.00 0.00 75 1012.5
20260901061100 60 219 0.0 3.5 0.00 0.00 0.00 75 1012.5
20260901060826 60 236 0.0 3.5 0.00 0.00 0.00 75 1012.5
20260901055604 60 325 0.9 7.0 0.00 0.00 0.00 75 1012.5
20260901055101 60 266 0.0 5.2 0.00 0.00 0.00 75 1012.6
20260901054552 59 260 0.0 5.2 0.00 0.00 0.00 76 1012.5
20260901054048 59 252 0.9 5.2 0.00 0.00 0.00 76 1012.4
20260901053531 59 282 0.9 5.2 0.00 0.00 0.00 75 1012.4
20260901053030 59 210 0.0 5.2 0.00 0.00 0.00 76 1012.3
20260901052529 59 271 0.0 3.5 0.00 0.00 0.00 76 1012.3
20260901052255 59 295 0.0 5.2 0.00 0.00 0.00 75 1012.4
20260901051536 59 266 0.0 5.2 0.00 0.00 0.00 75 1012.3
20260901051029 59 254 0.0 4.3 0.00 0.00 0.00 75 1012.3
20260901050529 59 274 0.0 2.6 0.00 0.00 0.00 75 1012.3
20260901050028 59 299 0.9 6.1 0.00 0.00 0.00 75 1012.3
20260901045516 59 224 0.9 6.1 0.00 0.00 0.00 74 1012.2
20260901045001 59 296 0.9 5.2 0.00 0.00 0.00 74 1012.3
20260901044501 59 287 0.9 6.1 0.00 0.00 0.00 74 1012.3
20260901044001 59 238 0.9 6.1 0.00 0.00 0.00 74 1012.3
20260901043501 59 289 0.9 5.2 0.00 0.00 0.00 74 1012.2
20260901043225 59 283 0.9 7.8 0.00 0.00 0.00 74 1012.3
20260901042500 60 262 0.9 7.8 0.00 0.00 0.00 74 1012.3
20260901042224 60 279 0.9 7.8 0.00 0.00 0.00 74 1012.2
20260901041500 60 260 0.9 7.8 0.00 0.00 0.00 74 1012.2
20260901041001 60 276 0.9 4.3 0.00 0.00 0.00 74 1012.1
20260901040501 60 268 0.9 2.6 0.00 0.00 0.00 74 1012.1
20260901040001 60 315 0.9 5.2 0.00 0.00 0.00 74 1012.0
20260901035501 60 297 0.9 5.2 0.00 0.00 0.00 74 1012.0
20260901035000 60 242 0.9 4.3 0.00 0.00 0.00 74 1011.9
20260901034501 60 258 0.9 7.0 0.00 0.00 0.00 74 1011.9
20260901034001 60 227 0.9 7.0 0.00 0.00 0.00 74 1011.8
20260901033500 60 241 1.7 7.0 0.00 0.00 0.00 74 1011.7
20260901033001 60 238 0.9 7.0 0.00 0.00 0.00 74 1011.7
20260901032502 60 249 1.7 7.8 0.00 0.00 0.00 74 1011.6
20260901032001 60 239 1.7 7.8 0.00 0.00 0.00 74 1011.6
20260901031501 60 253 1.7 9.6 0.00 0.00 0.00 74 1011.5
20260901031223 60 244 1.7 9.6 0.00 0.00 0.00 74 1011.5
20260901030500 60 241 1.7 7.8 0.00 0.00 0.00 74 1011.4
20260901030001 60 290 0.9 7.8 0.00 0.00 0.00 73 1011.4
20260901025500 60 232 0.9 3.5 0.00 0.00 0.00 73 1011.4
20260901025002 61 183 0.9 3.5 0.00 0.00 0.00 73 1011.5
20260901024501 61 281 0.9 7.8 0.00 0.00 0.00 73 1011.5
20260901024001 61 245 0.9 7.8 0.00 0.00 0.00 72 1011.5
20260901023501 61 258 1.7 7.8 0.00 0.00 0.00 72 1011.4
20260901023000 61 288 0.9 7.8 0.00 0.00 0.00 72 1011.4
20260901022724 61 238 0.9 6.1 0.00 0.00 0.00 71 1011.3
20260901022232 62 353 1.7 12.2 0.00 0.00 0.00 71 1011.4
20260901021501 62 271 1.7 12.2 0.00 0.00 0.00 70 1011.4
20260901021001 62 271 1.7 7.8 0.00 0.00 0.00 70 1011.4
20260901020501 62 266 1.7 9.6 0.00 0.00 0.00 70 1011.2
20260901020001 63 293 1.7 9.6 0.00 0.00 0.00 69 1011.3
20260901015501 63 271 1.7 8.7 0.00 0.00 0.00 68 1011.4
20260901015001 63 240 1.7 8.7 0.00 0.00 0.00 68 1011.4